INFORMATOR 1

Satellite information

Favourite Embed

Satellite Type and Status

PAYLOADIN ORBIT

Key statistics

Satellite INFORMATOR 1 at a glance.

Uptime

12578

Days in orbit

Revolutions

≈ 13.8

Per day

Orbit

LEO

Low Earth Orbit

Inclination

82.9

Latest

Satellite identification and parameters

Extended collection of information and parameters for INFORMATOR 1.

Object identification

Identified? True

Debris? False

Object name: INFORMATOR 1

International designator: 1991-006A

Object number (NORAD): 21087

Object ID (CCSDS): 21087

Country: COMMONWEALTH OF INDEPENDENT STATES (CIS)

Current information (Y/N): Y

RCS size: LARGE

Orbital parameters

Period: 104.69 minutes

Inclination: 82.943 deg

SMA: 7358.082 km

Apoapsis: 1006.706 km

Periapsis: 953.189 km

RAAN: 21.3506 deg

Eccentricy: 0.0036366

Argument of periapsis: 119.7576 deg

Mean anomaly: 304.9223 deg

Mean motion: 13.7548477 rev/day

Mean motion (dot): 0.00000057 rev/day2

B* drag term: 0.000042704 1/REarth

Two-line elements (TLE)

Creation date: July 6, 2025, 6:05 p.m.

Reference frame: TEME

Reference center: EARTH

Epoch: July 6, 2025, 2:19 p.m. UTC

TLE line 0: 0 INFORMATOR 1

TLE line 1: 1 21087U 91006A 25187.59688748 .00000057 00000-0 42704-4 0 9995

TLE line 2: 2 21087 82.9430 21.3506 0036366 119.7576 304.9223 13.75484770728032

Live tracking on map

Real-time ground track for satellite INFORMATOR 1.

In-orbit conjunctions

A list of the most updated potential collisions computed for object INFORMATOR 1.

Target Orbit TCA Probability of collision Miss distance Type
FENGYUN 1C DEB SSO 2025-01-21 00:27:19 0.0001779729 295.0 (m) DEBRIS
FENGYUN 1C DEB SSO 2024-11-03 19:42:27 0.0001857417 376.0 (m) DEBRIS

Associated space launch

Informator 1 was a prototype communications satellite for the Koskon (Space Conversion) Global Space Communication System to collect and transmit data from several scientific stations with an additional radio amateur hosted payload. It was launched on 29 January 1991 from the Plesetsk Cosmodrome by a Kosmos-3M launch vehicle.

INFORMATOR 1 was lifted into orbit during the mission ‘Kosmos-3M | Informator-1’, on board a Kosmos-3M space rocket.

The launch took place on Jan. 29, 1991, 11:59 a.m. from 133/3 (133L).

For more information about the launch, click the button.

Launch to space Kosmos-3M | Informator-1
Kosmos-3M | Informator-1

Agency: N/A

Status: Launch Successful

Launch date: Jan. 29, 1991, 11:59 a.m. UTC

Rocket: Kosmos-3M

Launch pad: 133/3 (133L)

Location: Plesetsk Cosmodrome, Russian Federation

...

Latest news about this satellite

There are no fresh news available about this satellite. Check back as we update our databases every day.


Newsletter sign-up

Weekly statistics, charts and insights to help you stay on top of the space industry.